Content
SEND FEEDBACK

Daily
Averages
Monthly
Summary
Canada

PORT-MENIER, QUEBEC


Home > North America > Canada > Quebec
Elevation: 174 feet     Latitude: 49 49N     Longitude: 064 18W

WEATHER
 
SELECT A DAY
Number of Records: 140,198;   Date Range: 1/1/95 - 7/22/14
 
SHARE

PRINT THIS DATA

[ ← Previous Day ]
WEATHER ALMANAC - FEBRUARY 8, 2014
[ Next Day → ]
[ °C ]   °F
Weather ElementAverageHighLow
Temperature13.9 °F18.5 °F (11:00 am)9 °F (11:00 pm)
Dewpoint8.7 °F14.7 °F (10:00 am) (7:00 pm)
Humidity78 %95 % (8:00 am)55 % (11:00 pm)
Barometer29.84 in29.95 in (11:00 pm)29.78 in (2:00 pm)
Wind Speed11.4 mph19.6 mph (3:00 pm)
Wind Gust27.6 mph (3:00 pm)
Weather ElementAverage
Wind DirectionWSW (246.8 °)

Weather ElementTotal
Precipitation0.05 in
Heating Degree Days51.3 (Base 65)
Averaged from 31 records on February 8, 2014
WEATHER CONDITIONS BREAKOUT
WIND DIRECTION BREAKOUT
WEATHER BY HOUR - FEBRUARY 8, 2014
[ °C ]   °F
Local TimeTemperatureDewpointHumidityBarometerVisibilityWind DirectionWind SpeedGust SpeedPrecipitationEventsConditions
1:00 AM14.9 °F13.3 °F93 %29.84 inWest (260°)8.1 mph
2:00 AM14.0 °F12.0 °F86 %29.83 inWest (270°)10.4 mph
2:00 AM14.4 °F11.7 °F89 %29.83 inWest (270°)10.4 mph17.3 mph
3:00 AM14.4 °F12.2 °F91 %29.83 inWest (260°)8.1 mph
4:00 AM14.2 °F11.7 °F90 %29.82 inWest (280°)6.9 mph
5:00 AM14.0 °F11.0 °F83 %29.82 inWest (270°)3.5 mph
5:00 AM13.6 °F11.1 °F90 %29.82 inWest (270°)3.5 mph
6:00 AM11.8 °F10.0 °F92 %29.82 inWSW (250°)3.5 mph
7:00 AM12.0 °F10.4 °F93 %29.82 inCalm
8:00 AM13.0 °F12.0 °F94 %29.82 inSE (140°)1.2 mph
8:00 AM13.3 °F12.0 °F95 %29.82 inSE (140°)1.2 mph0.02 in
9:00 AM15.4 °F14.2 °F95 %29.81 inSW (220°)11.5 mph17.3 mph0.01 in
10:00 AM16.5 °F14.7 °F93 %29.81 inWest (260°)11.5 mph18.4 mph
11:00 AM17.0 °F12.0 °F71 %29.82 inWSW (250°)16.1 mph
11:00 AM18.5 °F11.7 °F75 %29.82 inWSW (250°)16.1 mph25.3 mph0.02 in
12:00 PM18.0 °F11.7 °F76 %29.80 inWSW (250°)16.1 mph24.2 mph
1:00 PM17.1 °F7.9 °F67 %29.79 inWest (260°)16.1 mph23.0 mph
2:00 PM17.0 °F8.0 °F56 %29.78 inWest (260°)12.7 mph
2:00 PM16.7 °F8.2 °F69 %29.78 inWest (260°)12.7 mph
3:00 PM15.8 °F6.8 °F68 %29.79 inWSW (250°)19.6 mph27.6 mph
4:00 PM15.3 °F5.5 °F65 %29.80 inWest (260°)18.4 mph25.3 mph
5:00 PM13.0 °F6.0 °F64 %29.82 inWest (270°)15.0 mph
5:00 PM13.5 °F6.3 °F73 %29.82 inWest (270°)15.0 mph21.9 mph
6:00 PM12.4 °F3.4 °F67 %29.84 inWest (270°)15.0 mph20.7 mph
7:00 PM12.0 °F5.7 °F76 %29.86 inWest (280°)12.7 mph20.7 mph
8:00 PM12.0 °F7.0 °F71 %29.88 inWest (260°)17.3 mph
8:00 PM12.0 °F7.0 °F80 %29.88 inWest (260°)17.3 mph25.3 mph
9:00 PM11.1 °F4.5 °F75 %29.91 inWest (270°)12.7 mph21.9 mph
10:00 PM11.3 °F0.0 °F60 %29.93 inWest (280°)15.0 mph24.2 mph
11:00 PM9.0 °F0.0 °F55 %29.95 inWest (280°)12.7 mph
11:00 PM9.1 °F0.3 °F67 %29.95 inWest (280°)12.7 mph20.7 mph
Hourly data recorded from CWBY, located miles away from Port-Menier, Quebec







STORIES FROM OUR PARTNERS